Date,TemperatureHighF,TemperatureAvgF,TemperatureLowF,DewpointHighF,DewpointAvgF,DewpointLowF,HumidityHigh,HumidityAvg,HumidityLow,PressureMaxIn,PressureMinIn,WindSpeedMaxMPH,WindSpeedAvgMPH,GustSpeedMaxMPH,PrecipitationSumIn
2013-1-1,43.3,29.5,16.7,26.9,11.4,1.7,75,47,33,29.84,29.62,7,2,24,0.00
2013-1-2,29.0,13.9,8.6,11.8,1.8,-7.2,73,58,48,30.03,29.82,8,1,17,0.00
2013-1-3,32.8,12.5,0.7,9.7,-5.7,-9.7,65,46,24,30.06,29.94,5,1,13,0.00
2013-1-4,39.5,27.5,13.7,23.3,18.5,7.3,90,70,49,29.89,29.71,3,1,8,0.00
2013-1-5,42.2,28.4,21.1,34.1,18.3,15.5,82,67,40,30.17,29.74,5,0,10,0.00
2013-1-6,48.6,34.9,20.3,31.7,26.5,16.5,91,73,47,30.14,29.84,5,0,12,0.00
2013-1-7,44.8,28.1,18.3,34.8,19.6,13.8,98,73,38,30.32,29.86,7,1,17,0.00
2013-1-8,50.2,29.7,17.2,29.5,22.7,15.7,97,78,43,30.28,30.02,5,0,13,0.00
2013-1-9,43.9,33.1,19.8,35.8,27.3,18.8,97,81,55,30.32,29.90,5,0,12,0.00
2013-1-10,52.5,41.5,29.5,29.6,25.0,22.8,78,53,35,30.46,29.93,12,3,29,0.00
2013-1-11,39.9,32.3,23.9,34.3,27.2,21.5,99,82,61,30.45,30.14,1,0,8,0.00
2013-1-12,41.4,37.0,34.2,41.1,36.8,33.9,99,99,99,30.14,30.04,1,0,4,0.00
2013-1-13,48.6,41.6,35.6,48.3,41.4,35.4,99,99,99,30.06,29.89,2,0,6,0.00
2013-1-14,67.5,49.6,39.6,55.4,43.0,27.7,99,80,47,30.17,29.76,5,1,16,0.00
2013-1-15,49.6,37.2,29.8,31.1,26.4,23.8,85,66,43,30.24,30.14,5,1,10,0.00
2013-1-16,33.8,31.8,29.1,33.3,30.1,25.2,99,94,79,30.17,29.73,1,0,6,0.00
2013-1-17,46.1,32.8,24.6,38.3,26.4,9.9,99,79,46,30.01,29.73,6,1,21,0.00
2013-1-18,31.3,21.7,15.1,10.8,0.7,-6.1,59,41,24,30.35,29.96,9,2,26,0.00
2013-1-19,50.4,34.8,19.4,32.3,19.4,4.6,81,55,37,30.28,29.77,6,1,17,0.00
2013-1-20,57.7,41.3,27.5,32.7,25.0,9.0,74,54,31,29.83,29.43,8,2,21,0.00
2013-1-21,30.1,24.6,18.5,20.3,7.7,0.5,92,51,33,30.00,29.70,8,1,20,0.00
2013-1-22,33.4,20.2,10.8,20.1,7.1,-3.4,92,60,34,29.99,29.67,6,1,20,0.00
2013-1-23,22.3,10.6,1.4,-1.5,-11.2,-18.5,57,38,19,30.05,29.97,10,2,22,0.00
2013-1-24,24.6,10.4,-0.9,-8.5,-13.2,-16.1,54,35,21,30.14,29.97,12,3,23,0.00
2013-1-25,27.9,15.4,5.9,2.3,-10.7,-14.5,49,31,18,30.22,29.98,8,2,17,0.00
2013-1-26,30.2,17.8,10.0,7.7,-0.8,-10.6,81,48,20,30.15,29.92,9,3,23,0.00
2013-1-27,36.0,21.1,11.8,2.6,-1.1,-6.1,59,40,20,30.39,30.14,12,2,21,0.00
2013-1-28,30.2,23.1,16.5,23.4,10.8,-1.2,93,62,33,30.37,29.94,2,0,8,0.00
2013-1-29,37.9,30.1,23.7,32.5,27.1,22.0,99,89,72,30.11,29.94,2,0,5,0.00
2013-1-30,59.0,43.0,32.7,58.7,42.8,32.5,99,99,99,30.07,29.34,5,1,15,0.00
2013-1-31,62.2,47.5,29.8,62.0,38.5,15.4,99,73,43,29.48,28.85,10,4,24,0.00
2013-2-1,39.8,29.7,24.3,20.0,10.1,3.1,71,45,27,29.93,29.48,9,3,20,0.00
2013-2-2,29.0,26.8,17.9,10.4,6.3,2.4,51,41,36,30.15,29.95,3,1,8,0.00
2013-2-3,31.1,24.8,18.3,22.8,19.4,10.2,93,80,51,29.97,29.64,3,1,8,0.00
2013-2-4,35.1,24.5,17.6,21.2,9.6,1.8,94,56,32,29.84,29.62,9,2,21,0.00
2013-2-5,34.9,25.2,19.0,18.8,9.7,2.9,77,52,37,29.94,29.83,5,1,9,0.00
2013-2-6,45.0,30.7,21.4,28.9,19.0,4.8,94,65,35,30.12,29.83,5,1,16,0.00
2013-2-7,36.0,26.1,14.7,4.9,-0.2,-7.5,55,33,22,30.45,30.16,7,1,14,0.00
2013-2-8,24.9,20.8,16.7,20.8,18.1,-3.7,98,90,28,30.41,29.56,12,4,22,0.00
2013-2-9,33.4,18.5,13.3,32.7,17.8,11.6,99,97,93,30.12,29.54,16,7,29,0.00
2013-2-10,50.5,24.7,7.3,25.4,12.5,4.7,93,65,25,30.31,30.12,8,1,15,0.00
2013-2-11,32.9,28.6,14.4,32.3,25.7,7.9,99,89,71,30.26,29.52,2,0,4,0.00
2013-2-12,51.3,39.3,31.8,36.5,30.8,26.9,99,74,45,29.78,29.50,7,1,16,0.00
2013-2-13,53.2,36.0,25.0,29.9,24.7,21.3,88,65,36,29.77,29.63,3,0,11,0.00
2013-2-14,53.0,35.7,25.9,26.1,22.8,20.2,83,62,33,29.89,29.61,6,1,15,0.00
2013-2-15,56.4,32.4,22.8,35.3,26.8,20.3,99,82,43,29.90,29.81,5,1,13,0.00
2013-2-16,41.4,34.8,27.7,35.2,27.6,15.9,99,77,52,29.87,29.65,8,2,17,0.00
2013-2-17,28.6,21.6,16.2,17.9,8.3,-1.3,93,58,38,29.65,29.31,15,6,32,0.00
2013-2-18,36.7,23.4,13.8,5.1,-1.0,-5.6,52,36,19,30.06,29.58,13,4,26,0.00
2013-2-19,47.1,34.7,18.7,40.2,21.6,2.9,99,62,30,30.08,29.48,5,1,11,0.00
2013-2-20,37.9,32.6,25.9,36.8,20.6,10.9,99,64,39,29.68,29.44,6,2,23,0.00
2013-2-21,37.9,28.3,23.5,15.0,12.7,9.0,67,53,33,30.12,29.67,12,4,28,0.00
2013-2-22,45.8,32.7,20.8,24.9,19.7,15.2,83,61,35,30.31,30.13,6,1,13,0.00
2013-2-23,38.8,33.9,27.9,33.4,28.9,22.5,99,82,68,30.25,29.84,5,1,10,0.00
2013-2-24,35.6,33.6,31.3,35.3,33.3,31.0,99,99,94,29.84,29.63,3,1,10,0.00
2013-2-25,47.6,34.3,29.6,37.7,32.9,26.3,99,95,66,30.16,29.82,2,0,4,0.00
2013-2-26,50.0,36.1,28.4,42.8,31.1,27.3,99,84,56,30.25,30.09,5,0,8,0.00
2013-2-27,41.4,37.5,34.9,41.1,36.5,30.2,99,96,81,30.09,29.50,7,2,16,0.00
2013-2-28,52.9,38.5,33.1,41.2,36.0,32.8,99,92,61,29.55,29.44,5,1,10,0.00
2013-3-1,41.9,37.1,29.7,37.7,31.3,28.6,99,81,63,29.59,29.44,7,1,16,0.00
2013-3-2,49.8,38.0,30.2,33.8,28.3,25.2,86,69,52,29.58,29.53,7,2,13,0.00
2013-3-3,44.1,36.0,30.6,32.9,28.4,25.3,84,74,64,29.55,29.47,7,2,15,0.00
2013-3-4,42.4,35.1,30.0,27.8,24.3,21.2,79,65,46,29.66,29.49,9,4,23,0.00
2013-3-5,54.0,37.4,30.6,33.3,27.2,22.4,93,68,41,29.99,29.66,9,2,20,0.00
2013-3-6,39.6,35.8,32.5,36.8,34.2,30.0,99,94,74,30.05,29.97,7,2,21,0.00
2013-3-7,35.8,32.6,30.7,33.0,31.1,28.6,99,94,82,30.03,29.93,7,1,18,0.00
2013-3-8,41.7,33.4,30.0,38.1,31.0,26.2,99,91,66,30.08,29.88,3,1,10,0.00
2013-3-9,60.0,36.4,25.7,29.6,25.2,19.8,94,68,27,30.28,30.08,5,1,9,0.00
2013-3-10,50.0,35.5,22.1,34.5,29.1,21.6,99,80,50,30.33,30.22,5,1,8,0.00
2013-3-11,55.8,41.8,31.6,40.1,35.0,30.8,99,79,48,30.24,30.05,5,1,11,0.00
2013-3-12,55.8,48.1,38.1,54.0,47.6,37.3,99,98,89,30.06,29.61,5,1,12,0.00
2013-3-13,58.5,43.9,31.8,49.7,33.1,21.3,99,70,37,29.69,29.60,8,1,16,0.00
2013-3-14,41.2,31.7,22.3,25.3,15.8,6.4,78,53,34,29.75,29.61,7,2,18,0.00
2013-3-15,44.5,30.6,18.7,29.3,11.9,2.0,86,48,20,29.78,29.53,9,2,20,0.00
2013-3-16,42.6,33.8,26.2,27.0,15.1,8.8,77,48,27,29.80,29.57,7,1,15,0.00
2013-3-17,44.7,30.2,19.2,20.6,9.5,2.1,79,45,22,30.24,29.80,10,2,25,0.00
2013-3-18,43.1,29.4,15.3,27.5,6.6,-1.1,94,41,18,30.38,30.17,6,1,14,0.00
2013-3-19,34.7,31.5,26.2,34.4,31.2,26.0,99,99,94,30.16,29.56,6,0,17,0.00
2013-3-20,42.8,31.6,24.8,27.7,23.9,19.9,99,75,49,29.72,29.61,6,1,20,0.00
2013-3-21,44.4,31.1,19.4,27.9,21.3,15.6,96,71,33,29.72,29.51,6,1,11,0.00
2013-3-22,47.2,34.4,24.8,24.7,20.9,16.4,96,61,32,29.64,29.51,7,1,15,0.00
2013-3-23,45.8,35.7,24.8,24.3,20.0,17.0,80,55,35,29.69,29.53,9,2,23,0.00
2013-3-24,51.4,39.6,32.2,27.2,23.9,20.0,75,54,36,29.72,29.64,9,3,17,0.00
2013-3-25,45.1,36.1,29.7,32.7,28.1,23.8,81,73,61,29.69,29.45,6,2,16,0.00
2013-3-26,56.4,42.1,33.6,30.7,26.1,20.1,80,55,29,29.69,29.46,6,1,14,0.00
2013-3-27,59.6,43.5,25.9,29.8,25.6,20.7,86,54,28,29.77,29.65,9,3,20,0.00
2013-3-28,53.7,43.7,35.2,37.9,34.1,28.2,98,70,45,29.93,29.79,5,1,13,0.00
2013-3-29,62.7,45.1,31.1,38.0,32.6,29.3,94,65,34,29.96,29.88,6,1,13,0.00
2013-3-30,62.4,44.5,32.4,35.2,25.0,16.1,90,52,20,30.01,29.91,6,1,17,0.00
2013-3-31,64.0,44.4,25.3,41.3,26.4,17.6,88,54,21,30.04,29.65,8,2,15,0.00
2013-4-1,65.1,47.3,34.0,47.2,36.5,11.0,99,70,33,29.69,29.41,7,2,20,0.00
2013-4-2,43.5,35.2,28.6,14.8,11.2,7.2,48,37,26,29.83,29.69,9,3,27,0.00
2013-4-3,50.4,38.1,29.0,15.6,10.9,4.1,50,34,17,30.07,29.82,8,3,25,0.00
2013-4-4,59.3,42.3,28.4,21.6,14.4,9.8,57,35,16,30.20,29.94,7,2,15,0.00
2013-4-5,66.7,47.9,37.6,29.4,26.4,20.9,72,46,18,29.93,29.54,10,3,27,0.00
2013-4-6,50.9,38.4,28.8,22.5,10.1,0.4,55,34,15,30.25,29.80,13,4,28,0.00
2013-4-7,60.0,42.5,25.0,40.1,25.1,11.2,79,53,24,30.25,29.89,10,2,22,0.00
2013-4-8,70.5,50.5,38.5,46.2,39.8,34.5,99,72,32,30.01,29.86,9,1,18,0.00
2013-4-9,75.6,58.4,45.4,54.2,46.4,40.8,96,67,40,29.99,29.77,6,2,20,0.00
2013-4-10,65.9,52.6,45.7,52.9,48.5,44.0,99,87,62,29.94,29.77,5,1,9,0.20
2013-4-11,56.1,47.7,41.2,48.8,40.0,26.9,99,77,44,30.06,29.75,6,2,13,0.00
2013-4-12,41.7,38.0,35.6,37.5,34.8,30.6,99,89,66,30.10,29.73,7,2,15,0.41
2013-4-13,57.1,44.2,35.4,42.5,38.8,35.1,99,83,53,29.85,29.69,7,1,11,0.09
2013-4-14,57.9,46.4,33.8,42.5,34.8,27.6,99,67,38,30.13,29.83,7,1,20,0.00
2013-4-15,64.4,45.2,28.8,38.7,33.7,27.2,96,68,34,30.30,30.14,7,1,13,0.00
2013-4-16,70.9,53.0,35.4,54.5,43.7,34.2,99,74,43,30.32,29.95,8,2,17,0.00
2013-4-17,70.9,59.5,45.9,56.2,38.7,27.8,90,50,26,30.25,29.96,8,3,20,0.00
2013-4-18,64.8,51.6,35.4,45.0,33.9,27.4,84,54,32,30.35,30.06,7,2,15,0.00
2013-4-19,79.7,64.8,52.9,67.1,59.7,45.2,99,85,58,30.06,29.53,9,3,20,0.00
2013-4-20,68.9,54.7,43.1,67.6,43.7,24.3,99,70,38,30.13,29.51,7,2,17,0.53
2013-4-21,58.5,44.4,32.3,30.3,22.8,16.0,76,44,23,30.60,30.13,8,2,18,0.00
2013-4-22,54.8,42.8,30.6,35.3,30.8,24.9,98,66,34,30.68,30.53,7,2,17,0.00
2013-4-23,41.9,39.6,34.5,41.6,37.8,29.8,99,93,75,30.53,30.06,5,2,11,0.01
2013-4-24,79.8,57.6,41.5,56.1,46.7,41.3,99,73,28,30.04,29.67,7,2,16,0.00
2013-4-25,70.0,56.5,41.7,54.8,38.0,27.1,99,55,26,30.19,29.73,7,2,15,0.02
2013-4-26,65.3,53.1,33.8,40.1,35.2,28.3,88,54,32,30.35,30.19,6,1,12,0.00
2013-4-27,71.2,53.3,36.1,41.5,37.7,34.2,99,61,29,30.34,30.19,6,1,12,0.00
2013-4-28,76.3,55.8,38.3,43.8,38.3,31.9,95,56,27,30.26,30.12,6,1,13,0.00
2013-4-29,74.3,58.8,43.9,49.3,38.5,31.0,80,50,30,30.18,30.08,5,1,11,0.00
2013-4-30,73.5,59.3,46.0,41.0,30.1,20.2,66,36,20,30.28,30.16,6,1,11,0.00
2013-5-1,75.9,56.5,37.2,41.2,34.7,30.0,88,49,24,30.39,30.28,5,1,13,0.00
2013-5-2,83.3,56.0,41.2,48.6,41.3,33.7,92,62,25,30.42,30.25,8,1,17,0.00
2013-5-3,64.1,52.0,40.5,46.3,42.1,37.4,92,71,49,30.46,30.30,5,1,10,0.00
2013-5-4,65.5,51.9,40.3,48.4,39.7,22.6,99,69,21,30.29,30.21,5,1,12,0.00
2013-5-5,67.6,50.1,34.3,44.0,39.4,34.1,99,71,40,30.26,30.15,5,1,8,0.00
2013-5-6,77.0,54.2,37.2,51.1,44.3,37.0,99,75,30,30.21,30.05,5,1,8,0.00
2013-5-7,85.0,64.3,44.4,61.2,53.7,44.0,99,73,37,30.09,29.98,5,1,9,0.00
2013-5-8,77.7,64.2,51.8,66.2,61.0,51.5,99,90,62,30.12,29.96,6,1,10,0.04
2013-5-9,73.4,61.2,56.8,68.1,60.4,56.6,99,97,76,29.96,29.79,2,0,6,0.29
2013-5-10,85.0,66.3,54.7,65.8,59.8,54.4,99,83,46,29.87,29.79,3,0,12,0.26
2013-5-11,71.7,64.7,59.4,65.9,62.5,58.3,99,93,82,29.81,29.60,3,1,13,0.20
2013-5-12,75.2,61.8,48.1,63.0,53.7,32.6,99,78,43,29.71,29.46,6,1,15,0.06
2013-5-13,63.0,48.8,39.9,35.9,31.9,28.4,79,54,31,29.94,29.72,6,1,15,0.00
2013-5-14,63.2,49.5,36.5,38.8,33.3,29.5,90,57,32,29.97,29.88,6,2,18,0.00
2013-5-15,70.0,51.5,34.9,55.0,40.7,32.8,99,72,31,29.96,29.58,5,1,11,0.00
2013-5-16,83.6,67.4,47.0,56.6,45.6,35.0,99,55,25,29.72,29.53,7,2,30,0.00
2013-5-17,73.8,60.5,48.6,46.2,42.6,38.4,82,53,32,30.13,29.72,8,2,17,0.00
2013-5-18,79.0,60.3,41.7,49.4,45.1,40.2,99,62,28,30.23,30.13,3,0,8,0.00
2013-5-19,76.0,58.7,48.8,58.6,53.3,48.5,99,85,49,30.26,30.13,3,0,9,0.13
2013-5-20,85.4,70.3,56.1,70.9,64.8,55.8,99,85,59,30.12,29.81,3,0,8,0.07
2013-5-21,81.0,63.6,51.4,71.7,61.4,51.2,99,93,72,29.94,29.78,3,1,13,0.00
2013-5-22,68.5,56.9,50.9,66.0,56.2,50.6,99,98,87,29.99,29.78,2,0,8,0.66
2013-5-23,79.4,63.9,54.0,76.2,63.1,53.7,99,97,83,29.84,29.69,3,0,8,0.40
2013-5-24,74.8,63.7,48.9,72.8,62.8,48.7,99,97,79,29.74,29.56,6,1,12,0.81
2013-5-25,52.0,48.2,41.7,51.4,48.0,41.5,99,99,99,29.74,29.62,5,2,20,0.51
2013-5-26,58.4,50.3,40.1,45.3,42.2,39.9,99,75,55,30.00,29.61,8,2,21,0.59
2013-5-27,76.8,54.8,39.4,50.2,42.6,37.7,99,71,28,30.09,29.98,6,1,18,0.00
2013-5-28,81.0,60.2,42.4,53.3,48.6,38.7,99,71,33,30.15,30.06,3,0,8,0.00
2013-5-29,72.0,62.5,54.5,70.1,62.1,53.4,99,99,92,30.09,29.88,3,0,6,0.48
2013-5-30,92.3,75.2,62.1,75.2,69.0,61.8,99,84,51,29.99,29.90,5,1,12,0.00
2013-5-31,98.1,79.2,61.9,78.2,70.2,61.6,99,78,43,30.00,29.82,3,0,11,0.00
2013-6-1,97.8,81.3,65.3,75.1,70.7,65.0,99,74,39,29.87,29.74,3,1,12,0.00
2013-6-2,93.6,79.7,69.4,76.4,72.4,69.1,99,81,46,29.78,29.60,5,1,14,0.05
2013-6-3,82.6,70.2,57.0,75.9,66.5,49.5,99,89,63,29.75,29.65,3,0,8,0.46
2013-6-4,75.9,61.5,48.4,52.2,48.2,44.3,88,64,40,30.01,29.74,8,2,16,0.00
2013-6-5,80.0,63.1,47.7,55.6,51.4,47.4,99,69,36,30.10,29.99,3,1,12,0.00
2013-6-6,78.1,64.8,52.9,59.7,55.9,52.7,99,75,45,30.10,30.00,3,0,8,0.01
2013-6-7,58.1,55.7,52.9,57.8,55.4,52.6,99,99,91,30.02,29.63,5,0,10,1.87
2013-6-8,80.1,63.6,52.9,71.0,60.7,52.6,99,91,69,29.90,29.56,6,1,12,0.74
2013-6-9,83.6,66.8,55.0,65.1,60.1,54.8,99,82,45,30.07,29.91,5,1,12,0.00
2013-6-10,73.0,63.7,54.9,65.8,60.5,54.6,99,90,69,30.11,29.93,2,0,6,0.41
2013-6-11,64.6,58.5,55.6,63.1,58.2,55.3,99,99,94,29.93,29.49,3,1,8,0.74
2013-6-12,73.6,64.0,56.3,62.5,58.3,56.0,99,83,60,29.72,29.47,8,2,21,0.78
2013-6-13,69.6,58.1,51.1,64.2,57.1,50.8,99,97,81,29.72,29.61,2,0,6,0.46
2013-6-14,78.1,61.8,52.5,68.2,58.1,52.2,99,89,56,29.67,29.57,3,1,9,0.60
2013-6-15,83.1,66.8,52.5,59.8,54.1,49.6,99,69,32,29.84,29.68,5,1,11,0.00
2013-6-16,85.7,66.0,52.5,70.7,59.6,52.2,99,81,52,29.84,29.60,3,0,6,0.00
2013-6-17,86.8,69.1,57.7,69.1,64.0,57.5,99,86,51,29.81,29.68,3,1,11,0.33
2013-6-18,73.6,62.6,57.7,70.0,61.8,57.5,99,97,82,29.85,29.79,6,0,14,0.29
2013-6-19,81.9,65.6,54.9,61.4,56.9,50.8,99,77,41,30.06,29.82,5,1,10,0.00
2013-6-20,84.2,65.9,49.1,60.6,55.9,48.8,99,74,39,30.17,30.06,3,0,8,0.00
2013-6-21,90.1,71.1,55.8,68.3,61.4,55.5,99,75,38,30.15,30.09,2,0,8,0.00
2013-6-22,89.2,73.5,60.4,72.4,66.1,60.2,99,80,52,30.12,29.81,5,0,13,0.00
2013-6-23,94.3,78.1,65.3,78.9,71.1,64.3,99,80,61,30.05,29.87,3,0,9,0.00
2013-6-24,97.3,81.6,70.5,81.2,74.7,69.9,99,82,51,29.91,29.77,5,1,15,0.01
2013-6-25,94.3,79.5,69.1,79.3,73.5,68.8,99,84,55,29.83,29.62,3,1,17,0.29
2013-6-26,82.6,73.4,67.8,80.7,72.9,67.5,99,98,88,29.76,29.62,3,0,10,0.38
2013-6-27,74.7,66.7,60.4,74.2,66.4,60.1,99,99,97,29.78,29.66,2,0,7,0.06
2013-6-28,84.0,68.6,58.8,80.8,68.1,58.5,99,98,84,29.67,29.37,2,0,12,0.34
2013-6-29,88.0,76.8,70.8,78.3,73.3,70.5,99,90,64,29.61,29.41,3,0,9,0.00
2013-6-30,89.2,77.4,67.5,79.6,73.9,67.2,99,90,66,29.84,29.61,2,0,8,0.00
2013-7-1,83.8,75.5,72.1,80.9,74.9,71.8,99,98,89,29.97,29.83,2,0,6,0.87
2013-7-2,85.2,72.6,61.5,83.0,72.1,61.1,99,98,91,30.12,29.91,2,0,8,0.14
2013-7-3,91.6,73.8,61.2,81.8,72.0,60.9,99,95,70,30.12,30.02,3,0,9,0.00
2013-7-4,95.9,83.1,71.7,83.0,78.2,71.4,99,87,62,30.10,29.98,3,1,8,0.00
2013-7-5,96.8,84.2,75.7,82.8,79.7,75.4,99,88,61,30.05,29.93,3,1,10,0.00
2013-7-6,93.9,81.8,73.9,81.3,75.9,68.4,99,84,58,29.98,29.88,5,1,14,0.00
2013-7-7,94.3,79.2,66.8,83.7,75.4,66.5,99,89,62,29.93,29.80,2,0,7,0.00
2013-7-8,88.0,77.0,66.6,81.9,75.2,62.7,99,95,73,29.98,29.81,3,0,7,0.39
2013-7-9,76.3,69.9,65.8,74.9,69.5,65.6,99,99,93,30.01,29.95,1,0,4,0.00
2013-7-10,88.2,74.4,66.7,83.2,73.5,66.5,99,97,80,29.98,29.68,2,0,9,0.17
2013-7-11,85.6,75.7,70.0,83.4,75.2,69.7,99,98,91,29.84,29.66,3,0,8,0.09
2013-7-12,83.5,72.8,65.8,70.2,66.1,62.2,99,81,54,30.11,29.84,3,0,14,0.01
2013-7-13,86.9,72.7,65.3,79.2,70.7,64.5,99,94,75,30.22,30.11,2,0,5,0.00
2013-7-14,94.7,79.6,70.2,83.6,76.3,69.9,99,91,59,30.20,30.10,5,0,10,0.00
2013-7-15,94.6,80.4,70.3,83.0,76.8,70.0,99,90,63,30.11,29.93,3,0,8,0.00
2013-7-16,97.9,81.2,68.5,79.6,74.5,68.2,99,83,50,30.07,30.00,5,1,13,0.00
2013-7-17,98.7,82.6,70.3,82.2,77.1,70.0,99,86,56,30.08,29.88,2,0,6,0.00
2013-7-18,98.8,82.4,73.8,84.4,78.6,73.5,99,90,57,29.99,29.84,3,0,12,0.09
2013-7-19,98.7,85.4,71.9,84.2,78.8,71.6,99,83,57,29.90,29.59,5,1,13,0.00
2013-7-20,94.0,83.2,72.7,83.9,77.8,69.0,99,85,62,29.75,29.54,3,1,13,0.00
2013-7-21,89.0,75.5,65.7,73.8,70.2,65.4,99,85,57,29.90,29.71,3,0,8,0.00
2013-7-22,87.1,74.6,66.9,78.4,72.1,66.6,99,93,73,29.93,29.80,3,0,8,0.00
2013-7-23,81.1,72.6,69.1,80.8,72.3,68.8,100,99,99,29.79,29.44,2,0,5,1.26
2013-7-24,87.2,75.6,64.3,79.7,71.3,56.5,99,87,65,29.89,29.48,6,1,12,0.00
2013-7-25,66.0,61.8,58.6,63.6,57.7,51.6,99,87,72,30.01,29.88,6,1,13,0.17
2013-7-26,75.5,66.1,60.1,75.2,65.8,59.8,99,99,97,29.98,29.84,6,1,13,0.15
2013-7-27,88.0,72.1,59.4,75.1,67.8,59.1,99,88,55,29.95,29.88,3,0,7,0.00
2013-7-28,86.2,72.6,64.0,79.0,70.7,63.8,99,94,77,29.93,29.87,2,0,8,0.08
2013-7-29,90.3,73.9,67.1,79.6,71.8,66.8,99,94,66,29.95,29.85,5,0,9,0.44
2013-7-30,85.8,71.6,60.1,69.3,65.0,59.8,99,82,49,30.00,29.93,5,1,13,0.01
2013-7-31,86.2,71.0,60.3,70.8,65.5,60.0,99,85,49,30.04,29.94,5,0,8,0.00
2013-8-1,85.7,69.8,60.6,74.4,67.3,60.3,99,93,66,29.95,29.78,3,0,8,0.06
2013-8-2,84.9,71.4,64.8,76.8,68.3,64.5,99,91,57,29.78,29.68,3,0,8,0.44
2013-8-3,83.3,70.4,61.5,70.5,66.1,61.2,99,88,59,29.77,29.64,3,0,13,0.00
2013-8-4,83.7,67.5,57.0,68.9,62.0,56.7,99,85,49,29.80,29.67,3,0,12,0.02
2013-8-5,80.4,64.6,53.6,58.9,53.4,47.7,99,72,33,29.96,29.79,6,1,21,0.00
2013-8-6,85.3,65.2,50.0,64.2,56.9,49.7,99,78,44,30.05,29.96,2,0,6,0.00
2013-8-7,85.4,68.5,54.5,68.1,60.2,54.2,99,78,43,30.09,30.00,2,0,9,0.00
2013-8-8,85.0,73.7,64.6,77.9,71.1,61.8,99,92,77,30.03,29.90,3,0,9,0.02
2013-8-9,75.6,72.8,64.9,75.3,72.5,64.6,99,99,99,29.92,29.64,2,0,7,0.94
2013-8-10,85.7,72.7,61.6,73.2,67.3,59.9,99,85,50,29.92,29.69,5,1,15,0.01
2013-8-11,84.3,66.7,53.4,66.4,60.5,53.1,99,83,48,29.99,29.90,3,0,8,0.00
2013-8-12,86.2,69.3,57.4,69.1,63.1,57.1,99,83,50,29.93,29.82,5,0,8,0.00
2013-8-13,77.2,68.5,63.3,74.7,68.0,63.0,99,98,90,29.82,29.58,2,0,6,0.06
2013-8-14,80.8,66.8,58.9,65.2,59.5,54.9,99,79,55,29.86,29.56,6,1,17,0.00
2013-8-15,81.1,64.0,51.1,61.8,56.6,50.8,99,80,47,30.01,29.86,3,1,13,0.00
2013-8-16,84.0,65.4,52.3,69.6,59.3,52.1,99,83,46,30.10,29.84,3,0,12,0.00
2013-8-17,88.0,67.7,53.6,70.0,62.4,53.3,99,85,51,30.18,30.09,3,0,7,0.00
2013-8-18,82.6,68.3,57.4,72.5,65.3,57.1,99,91,65,30.18,29.98,2,0,6,0.00
2013-8-19,85.5,70.6,58.8,71.4,65.5,58.5,99,85,58,29.98,29.85,3,0,8,0.00
2013-8-20,91.0,72.8,60.3,74.1,67.4,60.0,99,86,52,29.99,29.88,3,0,7,0.00
2013-8-21,92.5,74.0,60.6,75.6,68.8,60.3,99,86,51,30.05,29.91,3,0,8,0.00
2013-8-22,91.0,76.6,63.1,78.0,71.7,62.9,99,87,55,29.93,29.72,3,1,10,0.00
2013-8-23,85.6,73.8,62.6,72.4,63.5,54.8,99,73,44,30.04,29.72,7,2,17,0.00
2013-8-24,84.6,65.9,53.4,62.6,55.7,53.1,99,74,38,30.24,29.90,3,0,7,0.06
2013-8-25,87.3,67.3,52.0,66.1,58.4,51.7,99,77,40,30.27,30.08,3,0,9,0.00
2013-8-26,85.3,72.2,62.6,73.9,68.1,60.9,99,88,68,30.08,29.77,3,0,12,0.04
2013-8-27,91.7,76.2,67.5,76.6,72.0,67.2,99,88,59,29.81,29.72,3,0,8,0.00
2013-8-28,91.2,73.9,63.3,77.1,69.7,63.0,99,88,60,29.89,29.75,2,0,7,0.00
2013-8-29,68.2,65.8,62.2,67.9,65.5,62.0,99,99,99,29.99,29.86,3,1,11,0.04
2013-8-30,87.8,71.0,57.9,75.7,67.6,57.6,99,90,63,29.93,29.71,3,0,8,0.00
2013-8-31,82.2,74.3,68.4,81.9,74.0,68.1,99,99,97,29.73,29.67,2,0,6,0.19
2013-9-1,88.3,76.4,70.3,81.1,75.1,70.0,99,96,75,29.78,29.68,2,0,8,0.02
2013-9-2,78.3,74.8,72.3,78.0,74.5,72.0,99,99,99,29.77,29.60,2,0,5,2.17
2013-9-3,84.0,72.9,61.2,80.1,71.9,60.9,99,97,81,29.71,29.59,2,0,12,0.01
2013-9-4,83.8,68.0,56.7,67.7,62.0,56.4,99,84,52,29.82,29.70,3,1,11,0.00
2013-9-5,75.9,63.2,51.3,64.6,56.4,47.2,99,81,45,30.06,29.75,6,1,15,0.05
2013-9-6,75.7,57.0,43.7,51.6,48.4,43.4,99,77,39,30.16,29.99,3,0,9,0.00
2013-9-7,84.6,63.6,48.6,65.3,57.3,48.3,99,83,44,30.18,29.75,2,0,8,0.00
2013-9-8,75.6,64.3,49.3,66.6,56.2,44.4,99,78,44,30.00,29.65,8,2,20,0.00
2013-9-9,74.3,57.1,41.5,66.2,48.7,41.3,99,77,43,30.14,29.93,2,0,8,0.00
2013-9-10,74.5,65.4,52.7,74.2,65.0,52.4,99,99,92,30.06,29.91,2,0,6,0.00
2013-9-11,97.2,79.3,66.7,87.4,76.1,66.3,99,91,64,29.96,29.82,5,0,17,0.01
2013-9-12,89.3,75.6,67.5,83.3,73.8,67.2,99,94,77,29.85,29.56,3,1,10,0.00
2013-9-13,83.1,68.4,60.6,79.2,67.5,58.9,99,97,79,29.67,29.47,6,1,17,0.00
2013-9-14,69.8,60.6,51.7,60.3,57.3,51.4,99,90,68,29.96,29.66,6,1,13,0.00
2013-9-15,75.7,58.7,46.6,59.0,53.4,46.3,99,85,46,30.06,29.94,3,0,7,0.25
2013-9-16,71.7,58.0,48.3,64.9,53.8,40.7,99,87,68,30.17,29.90,7,1,15,0.02
2013-9-17,71.2,51.4,39.2,49.7,44.1,38.9,99,79,44,30.34,30.17,6,1,12,0.00
2013-9-18,79.4,55.8,41.0,60.1,49.3,40.7,99,82,39,30.24,29.93,2,0,8,0.00
2013-9-19,86.1,60.4,45.3,66.5,55.6,45.1,99,87,46,30.04,29.92,3,0,6,0.00
2013-9-20,85.3,62.3,48.6,67.5,57.9,48.3,99,88,50,30.00,29.89,2,0,7,0.00
2013-9-21,78.6,63.7,50.7,69.7,61.4,50.2,99,93,68,29.93,29.62,3,0,12,0.00
2013-9-22,74.7,64.6,53.2,70.2,60.7,48.6,99,88,60,29.74,29.49,5,1,11,0.77
2013-9-23,67.1,53.3,44.4,50.5,45.7,42.3,97,77,52,29.96,29.74,6,2,16,0.00
2013-9-24,71.7,53.6,41.5,50.7,45.7,41.3,99,78,45,29.96,29.71,7,1,18,0.00
2013-9-25,75.7,55.3,43.2,59.1,50.9,42.9,99,87,52,29.89,29.77,5,0,14,0.00
2013-9-26,75.4,58.6,53.1,65.2,53.9,51.8,99,86,51,30.04,29.85,2,0,12,0.00
2013-9-27,68.0,58.9,50.7,59.7,56.3,50.5,99,92,72,30.17,30.04,3,0,8,0.00
2013-9-28,80.1,59.2,48.7,67.2,55.0,48.5,99,88,54,30.24,30.17,3,0,9,0.00
2013-9-29,77.6,55.5,46.7,60.9,51.6,46.4,99,89,47,30.18,30.03,2,0,5,0.00
2013-9-30,75.2,54.6,45.3,61.3,51.8,44.9,99,92,56,30.04,29.87,2,0,5,0.00
2013-10-1,82.9,59.8,45.0,63.6,54.8,44.5,99,86,46,29.87,29.74,5,1,12,0.01
2013-10-2,83.1,65.6,51.3,69.6,61.0,51.0,99,87,58,29.84,29.72,5,0,15,0.00
2013-10-3,82.8,61.9,50.4,64.6,57.3,50.1,99,87,44,29.99,29.85,2,0,6,0.00
2013-10-4,62.4,56.6,51.1,62.1,56.3,50.8,99,99,99,30.00,29.94,2,0,5,0.38
2013-10-5,70.4,61.5,55.8,65.9,60.5,55.5,99,97,80,30.03,29.96,2,0,5,0.01
2013-10-6,59.4,55.6,52.9,59.1,55.4,52.6,99,99,91,30.15,29.98,3,0,8,0.44
2013-10-7,80.1,64.6,55.9,77.5,63.9,55.7,99,98,89,30.04,29.69,6,1,16,0.28
2013-10-8,72.3,55.8,44.9,58.5,49.4,43.7,99,82,43,30.29,29.80,7,1,16,0.01
2013-10-9,69.6,50.5,40.1,55.9,46.2,39.8,99,87,51,30.39,30.13,3,0,8,0.00
2013-10-10,62.9,51.1,41.6,56.8,49.5,41.4,99,95,76,30.28,30.10,2,0,6,0.00
2013-10-11,80.8,57.4,47.5,62.3,50.9,43.3,99,83,38,30.10,30.00,3,0,10,0.00
2013-10-12,57.9,53.6,48.2,57.6,53.3,47.9,99,99,99,30.31,30.07,5,1,10,0.00
2013-10-13,60.4,51.2,41.9,56.3,49.3,41.6,99,94,75,30.37,30.29,2,0,7,0.00
2013-10-14,71.1,50.4,37.3,56.7,45.8,37.0,99,87,49,30.32,30.14,2,0,6,0.02
2013-10-15,67.1,56.8,50.7,59.6,54.8,50.4,99,93,75,30.18,30.08,2,0,6,0.00
2013-10-16,62.8,55.7,51.4,60.2,54.3,51.2,99,95,78,30.10,29.81,2,0,6,0.00
2013-10-17,79.7,59.6,48.4,66.4,55.8,48.1,99,89,56,29.82,29.62,3,0,13,0.00
2013-10-18,71.6,60.3,46.0,61.2,53.8,43.5,99,81,50,29.81,29.50,6,1,16,0.06
2013-10-19,74.1,54.8,39.9,53.2,46.4,39.7,99,77,44,29.87,29.65,2,0,6,0.00
2013-10-20,66.7,53.1,42.1,51.8,43.8,36.9,99,73,42,29.92,29.59,6,1,17,0.02
2013-10-21,73.2,50.3,35.8,50.2,42.7,35.5,99,79,41,30.02,29.89,3,0,13,0.00
2013-10-22,67.3,51.9,41.5,57.2,47.4,40.2,99,86,64,29.89,29.60,5,0,13,0.00
2013-10-23,53.4,44.5,34.9,43.7,38.2,34.6,99,80,55,29.70,29.49,2,0,6,0.11
2013-10-24,57.0,45.5,34.9,39.6,33.7,28.7,96,66,40,29.78,29.55,7,1,17,0.00
2013-10-25,50.2,41.4,32.2,39.3,32.1,26.8,99,71,48,30.06,29.78,7,1,15,0.00
2013-10-26,57.7,42.9,28.9,41.6,32.0,28.0,99,69,36,30.06,29.76,6,1,20,0.11
2013-10-27,57.6,48.5,40.5,41.2,36.2,31.8,89,64,44,29.96,29.69,6,1,14,0.00
2013-10-28,63.5,44.2,31.6,40.0,33.3,25.6,99,68,42,30.27,29.96,7,1,20,0.00
2013-10-29,58.3,36.6,27.0,33.4,24.9,20.5,92,66,31,30.37,30.26,3,0,9,0.00
2013-10-30,50.5,37.7,29.1,43.2,33.5,24.3,99,85,69,30.27,30.09,1,0,4,0.01
2013-10-31,60.3,44.5,30.4,60.0,44.2,30.1,99,99,98,30.15,29.68,3,0,8,0.21
2013-11-1,70.2,64.6,54.1,68.1,61.6,53.9,99,91,74,29.68,29.33,6,2,22,0.05
2013-11-2,76.2,54.4,41.5,56.0,48.2,41.3,99,83,43,29.64,29.49,3,0,8,0.01
2013-11-3,49.4,41.3,31.0,48.1,30.2,16.3,99,67,39,30.34,29.63,8,3,16,0.00
2013-11-4,53.8,33.2,24.5,24.6,19.8,16.8,83,61,28,30.63,30.27,5,1,9,0.00
2013-11-5,57.0,37.1,24.6,35.0,28.7,20.2,92,74,41,30.63,30.41,2,0,6,0.00
2013-11-6,66.0,50.4,36.9,51.7,43.9,34.2,99,80,52,30.42,29.93,5,1,13,0.00
2013-11-7,64.8,54.2,39.9,62.5,52.4,33.5,99,94,75,29.93,29.58,6,1,16,0.13
2013-11-8,55.0,40.3,31.5,39.7,28.9,22.7,82,64,47,29.99,29.71,6,2,16,0.00
2013-11-9,49.0,39.1,29.3,30.4,26.1,22.6,77,60,40,30.12,29.93,7,1,13,0.00
2013-11-10,61.3,45.4,37.9,53.4,37.9,30.4,99,76,58,29.93,29.63,6,1,21,0.04
2013-11-11,58.7,46.4,39.0,34.5,30.6,27.1,72,55,36,30.00,29.74,7,1,18,0.01
2013-11-12,48.4,35.5,26.6,40.2,25.6,16.5,98,68,53,30.09,29.77,9,2,18,0.07
2013-11-13,43.7,29.7,23.2,20.4,15.6,12.0,75,57,36,30.20,28.07,8,1,18,0.00
2013-11-14,56.1,38.3,26.6,29.5,23.6,16.2,86,58,31,30.05,29.93,5,1,12,0.00
2013-11-15,66.9,40.9,25.9,36.0,26.1,22.0,94,62,21,30.10,29.99,3,0,9,0.00
2013-11-16,72.1,43.1,31.6,41.0,31.8,28.5,89,67,28,30.23,30.08,2,0,6,0.00
2013-11-17,48.2,40.1,29.3,45.2,37.8,28.0,99,92,81,30.24,29.76,2,0,5,0.02
2013-11-18,72.1,55.6,45.3,61.8,48.4,33.7,99,79,47,29.75,29.42,7,1,16,0.19
2013-11-19,48.7,40.0,31.0,34.2,24.2,17.2,70,53,38,30.27,29.57,9,4,23,0.00
2013-11-20,49.8,33.3,22.6,20.4,16.3,13.8,71,51,30,30.55,30.18,10,3,22,0.00
2013-11-21,55.0,33.8,18.3,28.5,21.7,14.1,89,64,31,30.56,30.28,3,0,9,0.00
2013-11-22,44.2,40.3,34.3,44.0,38.9,28.2,99,95,78,30.28,29.71,1,0,4,0.20
2013-11-23,51.7,39.8,29.8,44.5,28.9,9.0,99,68,39,29.97,29.68,8,2,17,0.00
2013-11-24,32.5,25.0,19.4,12.5,3.5,-4.0,60,40,27,30.09,29.68,14,5,33,0.00
2013-11-25,39.0,25.3,14.1,15.0,1.6,-7.7,54,37,16,30.27,30.10,104,2,76,0.00
2013-11-26,38.5,33.8,30.4,33.4,23.6,14.2,99,68,46,30.25,29.97,3,0,7,0.00
2013-11-27,61.5,48.0,33.4,61.2,47.7,29.0,99,99,83,29.96,29.12,7,2,15,0.00
2013-11-28,39.7,31.4,21.6,36.5,18.4,6.8,97,61,35,30.34,29.34,9,2,21,0.00
2013-11-29,40.9,26.5,17.6,22.9,11.7,1.4,86,56,31,30.66,30.33,9,1,17,0.00
2013-11-30,41.0,24.6,12.7,22.4,15.1,8.2,89,68,38,30.72,30.34,5,1,8,0.00
2013-12-1,35.2,32.8,29.7,35.0,30.5,22.4,99,91,74,30.34,29.93,5,0,9,0.00
2013-12-2,39.4,36.7,35.1,39.1,36.4,32.2,99,99,99,29.93,29.83,2,0,10,0.00
2013-12-3,56.1,38.5,28.6,46.2,36.4,28.3,99,93,59,29.86,29.75,5,1,9,0.00
2013-12-4,45.0,33.3,26.8,36.7,29.6,26.5,99,88,60,30.11,29.86,5,0,10,0.00
2013-12-5,39.2,35.6,27.0,38.9,35.3,26.7,99,99,98,30.12,29.81,3,0,7,0.00
2013-12-6,49.5,42.6,33.3,49.2,40.3,30.7,99,92,56,30.07,29.75,6,1,10,0.00
2013-12-7,47.7,33.6,24.1,40.0,29.0,21.6,99,85,56,30.36,29.99,7,1,20,0.00
2013-12-8,31.8,26.9,19.8,23.3,20.2,17.3,94,76,60,30.51,30.36,5,0,8,0.00
2013-12-9,35.6,30.9,24.8,35.3,29.3,18.3,99,94,67,30.42,29.79,2,0,8,0.00
2013-12-10,34.4,30.3,23.4,34.1,28.5,15.2,99,94,65,29.89,29.68,2,0,8,0.00
2013-12-11,38.4,25.5,17.6,20.2,17.8,16.0,97,74,46,30.10,29.82,6,1,17,0.00
2013-12-12,31.6,20.1,11.5,20.9,8.5,-0.2,98,64,32,30.18,29.96,7,1,17,0.00
2013-12-13,34.6,20.8,12.0,20.0,11.2,0.5,81,67,48,30.32,29.88,7,2,14,0.00
2013-12-14,17.5,12.9,8.2,15.5,3.0,-3.6,95,65,46,30.54,30.10,6,2,12,0.00
2013-12-15,28.6,21.8,16.5,28.1,21.4,15.3,99,98,94,30.10,29.35,8,2,18,0.00
2013-12-16,35.0,22.9,12.7,22.8,12.3,4.8,99,66,34,30.11,29.63,7,1,20,0.00
2013-12-17,15.7,10.5,-1.7,14.8,5.7,-5.6,96,81,57,30.20,29.88,7,1,15,0.00
2013-12-18,44.1,25.9,14.4,27.1,20.1,12.7,94,80,47,29.97,29.79,7,2,17,0.00
2013-12-19,46.8,31.8,26.1,27.4,24.1,19.2,92,74,45,30.02,29.86,6,1,14,0.00
2013-12-20,57.4,36.2,26.6,43.1,31.7,24.9,99,85,47,30.02,29.80,3,0,8,0.00
2013-12-21,56.5,42.4,33.3,53.1,40.3,32.8,99,93,68,30.12,29.74,2,0,6,0.00
2013-12-22,46.0,36.8,31.7,45.8,36.5,25.0,99,99,76,30.23,29.70,8,0,14,0.00
2013-12-23,35.6,33.1,31.6,35.3,32.9,31.4,99,99,99,30.00,29.88,2,0,7,0.00
2013-12-24,43.6,32.2,25.2,35.2,24.0,13.1,99,73,47,30.11,29.96,6,2,15,0.00
2013-12-25,32.9,19.6,12.6,14.7,6.0,1.6,73,56,33,30.46,30.11,9,2,21,0.00
2013-12-26,27.5,21.2,15.3,25.0,17.6,8.2,99,86,73,30.42,30.00,3,0,6,0.00
2013-12-27,34.7,25.3,16.3,25.0,21.1,16.1,99,85,60,30.18,30.09,3,0,14,0.00
2013-12-28,48.5,27.3,17.3,33.3,24.7,17.1,99,91,51,30.12,29.91,2,0,9,0.00
2013-12-29,39.4,32.7,25.3,36.8,31.7,25.1,99,96,83,29.93,29.36,6,1,15,0.00
2013-12-30,46.4,32.3,15.8,40.7,24.7,7.4,99,76,43,30.09,29.43,7,2,17,0.00
2013-12-31,30.4,17.9,10.7,14.9,5.9,-1.7,85,60,37,30.08,29.93,6,1,10,0.00
2014-1-1,33.8,20.1,12.7,12.8,8.4,5.5,79,61,37,30.30,30.08,7,1,15,0.00
2014-1-2,18.3,10.1,0.1,14.6,6.9,-6.6,92,87,79,30.27,29.81,7,2,18,0.00